STARLINK-35905 (67048 NORAD) Tracking and Keplerian Element Data

This shows tracking and keplerian element data for the satellite.

Feedback or suggestion? Click here.




ElementValue
Catalog67048
NameSTARLINK-35905
Epoch Orbit143
Epoch Day354.25003472
Epoch Year2025
RAAN136.2022
Inclination43.0002
Eccentricity0.0001761
Argument of Perigee261.22
Mean Anonmoly1.3181
Mean Motion15.89221178
Decay Rate-0.01437632
L11 67048U 25294U 25354.25003472 -.01437632 00000+0 -55200-2 0 9990
L22 67048 43.0002 136.2022 0001761 261.2200 1.3181 15.89221178 1436



Live tracking and technical data element details for STARLINK-35905 (NORAD 67048). STARLINK-35905 can be tracked NOW for your location showing map with azimuth and elevation plus other details from your city location.







IsCatalogInMostPopularTable: catalog: 67048, numindb: 87
Update: records affected: 1



GetName: 67048 STARLINK-35905

Hit Count: updated at: Thu, 21 May 2026 11:59:39 GMT